Theta_e
296 297 298 299 299 298 298 297 296 295 295 294 296 298 299 300 299 302 302 306 306 306 306 306 306 306 306 306 306 304 305 305 307 309 310 310 311 310 311 310 309 309 310 310 310 310 310 304 305 306 302 299 299 297
295 296 299 299 298 298 297 298 296 295 293 295 296 298 298 299 300 301 303 305 306 305 304 304 304 304 305 306 305 303 305 304 305 310 310 311 311 312 311 311 308 310 310 311 309 307 303 302 302 301 300 298 297 297
295 296 299 299 299 298 297 297 296 295 294 295 297 299 298 299 299 303 304 305 304 304 304 304 303 303 304 305 305 304 305 305 306 307 310 311 309 310 312 310 308 308 307 309 306 304 302 300 299 298 298 297 296 296
295 296 299 298 298 297 297 296 294 293 293 295 298 299 299 299 299 303 304 304 304 304 305 302 302 303 302 303 304 304 305 304 306 307 307 309 309 308 310 310 309 307 306 306 304 303 300 299 298 296 295 295 294 294
296 296 299 298 298 297 297 296 294 293 294 296 297 298 298 298 299 302 303 304 304 304 304 303 302 302 302 302 303 302 304 304 305 306 309 308 305 307 307 308 308 306 307 306 307 302 302 299 297 296 295 294 293 293
296 297 299 298 298 297 297 296 294 294 294 296 297 297 298 297 300 302 302 302 303 302 302 303 302 302 302 302 303 303 303 303 304 305 306 305 305 307 308 306 305 304 304 303 302 301 300 298 297 295 294 294 293 292
296 298 298 298 297 296 296 297 294 294 294 296 296 297 297 297 300 301 302 303 303 303 302 302 302 302 302 302 303 303 303 304 304 303 304 303 302 304 307 307 303 301 301 301 300 299 297 297 295 294 293 291 290 289
298 298 298 297 297 297 296 295 294 295 295 296 297 296 295 295 296 299 301 302 303 304 304 304 302 302 303 302 302 303 303 303 303 303 303 304 302 304 306 304 301 300 299 298 298 298 297 295 294 293 292 291 290 289
297 298 297 297 297 296 296 295 295 295 296 297 296 296 296 299 299 296 297 299 302 303 304 304 303 302 303 303 302 302 302 304 302 304 304 304 305 305 304 303 301 300 298 297 297 296 294 293 292 291 291 291 290 288
298 298 297 297 296 295 294 295 295 296 296 296 295 294 294 295 296 296 297 297 302 301 303 305 303 303 302 303 303 302 302 303 303 303 302 303 305 304 303 302 300 300 299 297 296 295 294 293 292 291 291 291 290 288
297 298 297 296 295 295 295 295 295 296 295 295 293 295 295 296 299 298 298 301 300 301 302 303 303 304 303 304 303 302 303 302 303 303 303 303 304 304 301 301 300 300 299 298 297 296 295 294 293 292 291 289 288 286
296 296 296 296 296 295 295 294 294 294 294 295 295 294 295 298 299 301 300 299 300 301 301 303 303 302 303 302 302 301 301 301 304 302 302 303 306 303 301 300 300 298 298 297 297 296 295 294 292 291 289 287 286 285
296 296 296 296 295 295 294 294 293 292 294 294 294 294 298 296 299 299 298 299 301 300 301 302 303 302 302 301 301 303 302 303 302 303 302 306 303 301 301 299 298 297 297 296 295 294 293 292 290 289 287 286 286 285
296 295 295 294 292 292 292 292 294 294 294 296 296 296 299 298 298 301 302 302 299 299 301 302 302 302 301 301 302 302 303 303 302 302 304 306 301 300 299 297 297 296 295 294 293 292 291 291 289 288 287 286 285 284
295 295 294 293 293 292 292 294 292 293 294 295 296 297 297 296 296 296 298 298 298 300 301 301 302 302 302 300 302 301 301 301 302 304 307 302 299 298 296 296 295 294 294 293 292 291 290 289 288 288 286 285 284 283
294 294 294 293 292 293 291 292 292 293 294 294 296 295 296 297 296 296 297 296 297 300 300 301 302 303 302 303 301 301 301 302 305 306 302 299 297 296 295 294 294 293 292 291 291 290 289 288 288 286 285 284 283 283
294 294 293 292 292 292 294 296 294 293 294 295 295 295 296 296 297 296 297 296 297 299 301 301 301 301 302 301 301 302 304 305 302 301 300 298 296 295 294 293 292 292 291 291 290 289 288 287 286 285 284 284 283 282
294 293 293 292 292 293 294 294 293 294 295 296 295 294 295 295 295 295 296 297 298 299 300 301 301 301 301 301 302 304 303 301 300 299 297 295 294 293 293 292 292 291 291 290 289 288 287 286 285 284 283 283 282 282
292 293 292 293 294 294 294 294 294 294 294 294 293 294 294 294 295 295 295 296 296 297 299 299 301 301 302 301 301 301 300 301 299 296 294 294 293 292 291 290 291 291 289 289 288 287 286 286 285 284 283 282 282 281
292 292 292 292 294 293 293 294 294 293 294 294 294 295 295 295 293 293 295 296 296 298 298 299 301 296 296 295 296 296 296 298 297 296 293 293 292 291 290 291 291 289 288 287 286 285 284 284 284 283 282 282 282 281
293 292 292 293 294 294 294 294 294 293 293 294 294 294 294 294 295 296 296 295 295 296 298 295 294 293 294 293 294 295 295 295 298 298 299 295 293 291 289 290 288 287 286 286 285 284 283 284 284 283 283 282 282 281
291 291 292 292 293 293 293 294 294 294 294 294 294 294 295 294 294 295 294 295 295 294 292 291 290 291 291 291 292 293 294 294 294 293 293 294 294 290 289 288 287 286 286 286 285 285 285 284 283 283 282 282 282 281
292 292 292 291 292 292 292 294 293 294 294 294 294 294 294 294 294 293 293 294 292 290 289 289 287 288 289 290 291 291 292 293 293 293 293 292 292 291 291 289 288 287 287 286 286 285 285 284 283 283 283 282 282 281
290 289 290 292 292 291 292 293 293 293 294 294 294 293 294 294 292 292 293 294 290 289 287 286 287 288 289 290 290 290 290 289 290 291 291 291 291 291 290 289 288 287 287 287 287 286 285 285 284 283 283 282 281 281
291 289 292 291 292 292 293 293 293 293 293 293 293 293 294 292 293 294 294 291 289 286 285 284 285 286 286 287 287 287 288 287 288 289 290 290 289 290 289 288 288 287 286 286 286 286 285 284 284 283 282 282 282 281
291 290 292 292 292 293 293 293 293 293 293 293 293 294 293 293 293 295 291 287 285 283 282 281 282 283 285 284 284 285 285 285 286 287 288 287 287 288 287 287 287 286 285 285 285 285 284 284 283 283 282 281 281 281
291 292 291 291 292 292 293 293 293 294 294 293 294 293 293 293 295 288 283 280 281 279 279 280 281 281 281 282 282 282 283 284 285 286 286 286 285 285 285 286 286 286 285 285 284 283 284 283 283 282 282 281 281 281
291 291 292 292 292 293 293 294 294 294 294 294 294 294 294 291 287 281 278 279 280 280 279 280 280 281 281 282 282 282 283 283 284 284 285 285 284 284 283 283 283 283 283 283 282 282 282 282 283 282 282 282 281 281
291 291 291 292 292 292 293 294 294 290 289 292 294 292 285 278 276 276 277 278 278 278 278 279 279 281 282 283 282 281 281 282 284 285 286 286 284 282 282 282 281 281 281 281 281 281 281 281 282 282 282 281 281 281
291 290 291 292 291 292 291 289 289 287 286 286 285 281 278 275 274 275 275 276 276 276 276 277 278 279 279 281 280 279 280 281 282 282 281 281 281 281 282 282 281 281 281 281 281 281 281 281 281 280 280 280 280 280
289 289 290 291 291 290 287 285 285 285 285 284 284 284 279 274 273 274 275 274 274 274 275 275 275 277 277 277 278 278 278 279 279 280 280 280 280 281 281 281 281 281 281 281 281 281 281 280 280 280 280 280 279 279
289 290 291 291 290 286 285 286 287 287 285 284 282 280 278 279 277 272 271 272 272 272 272 273 273 274 275 275 276 276 276 277 278 278 278 278 278 278 278 278 278 279 279 279 279 279 279 279 279 279 279 278 278 277
287 288 288 288 288 287 286 286 287 287 286 284 281 280 277 278 275 271 270 271 270 270 272 273 274 274 274 274 275 275 275 275 277 277 277 277 277 277 277 277 276 276 276 276 276 277 277 277 277 276 276 275 274 274
Wind_Speed
22 20 28 24 24 19 19 18 17 13 11 9 9 6 5 2 8 7 3 7 10 14 20 20 29 20 20 17 8 18 9 6 6 6 5 2 2 5 6 12 10 8 6 5 7 6 5 5 10 4 8 8 7 6
20 19 23 24 23 20 19 19 17 13 13 11 9 7 15 5 4 9 5 12 11 16 18 19 21 14 14 11 19 21 3 15 8 4 2 2 2 2 9 4 10 2 1 1 4 4 11 10 16 13 9 11 7 6
21 21 26 26 27 20 18 21 18 15 16 12 11 9 7 4 7 7 8 11 23 25 17 14 13 16 15 17 16 13 8 5 3 1 1 3 2 2 4 4 7 4 2 4 3 9 12 13 12 12 11 10 8 6
22 23 24 28 26 21 22 19 16 15 15 14 13 12 11 8 1 9 12 8 16 10 7 11 11 15 11 11 11 8 11 7 7 2 3 1 1 1 2 6 3 3 9 6 6 10 11 8 10 10 11 9 9 8
23 22 30 29 29 25 23 19 17 16 17 14 12 11 9 8 10 9 12 14 8 5 10 18 19 15 14 13 12 10 12 12 9 3 1 1 3 2 3 5 4 7 5 5 2 15 4 16 12 11 10 8 7 6
23 18 27 28 24 26 24 21 18 18 18 16 13 9 9 13 16 8 5 11 24 28 16 4 9 11 12 13 13 12 10 8 6 4 4 4 3 5 2 3 9 12 12 8 7 13 13 17 11 11 10 8 7 7
19 34 30 28 26 24 23 22 19 16 18 19 11 12 12 13 10 4 6 13 18 14 8 5 5 4 7 8 10 9 7 4 7 5 4 5 4 3 1 2 13 12 9 11 16 19 15 15 9 11 10 9 9 8
21 33 30 29 26 25 22 23 21 19 18 20 11 11 10 9 9 9 21 18 11 7 6 3 3 7 3 5 6 3 5 4 4 3 2 4 4 2 1 14 16 14 15 16 14 2 15 14 14 12 10 9 8 6
25 34 31 26 27 23 25 21 21 20 19 19 13 11 12 9 5 12 14 10 10 5 3 3 7 4 7 4 8 4 2 2 2 1 2 1 3 2 4 17 16 18 15 16 11 13 15 15 13 11 10 8 7 6
32 31 32 25 28 28 25 23 21 22 21 20 11 3 4 7 20 13 6 3 3 3 3 3 9 4 12 6 3 3 2 1 1 1 4 1 0 5 6 14 16 17 14 18 18 17 15 13 12 11 9 8 7 8
33 32 29 31 30 27 25 24 24 24 20 9 3 4 15 16 5 3 2 1 3 3 3 7 12 8 8 3 3 2 1 1 3 3 3 3 3 9 12 15 16 16 15 16 13 13 12 12 13 12 11 10 10 10
30 30 29 26 27 27 25 26 26 15 7 4 10 16 8 3 3 3 2 0 1 3 4 8 12 8 5 4 4 3 2 1 0 4 2 2 4 16 17 18 17 17 17 15 11 12 12 12 13 13 12 12 12 14
29 28 25 25 28 28 25 31 20 13 21 12 5 4 2 2 2 2 3 3 4 4 5 9 4 4 4 5 4 2 2 2 10 2 2 2 14 16 18 19 17 16 17 15 12 14 14 17 15 16 18 17 16 12
29 28 32 30 30 31 26 23 22 11 7 4 3 4 2 3 2 5 6 6 5 7 13 14 5 3 3 3 1 3 0 3 2 3 4 5 15 18 18 19 19 18 18 18 19 19 19 19 19 18 16 14 13 13
33 32 31 29 28 29 23 22 14 12 6 5 4 3 3 4 8 3 4 6 6 7 12 9 3 4 3 3 1 2 1 3 4 2 3 12 17 19 19 19 20 23 24 23 20 19 18 17 18 17 17 16 15 14
35 32 28 30 30 28 14 11 10 6 4 4 4 3 6 7 4 4 8 6 7 5 8 3 2 2 2 3 4 3 3 3 1 4 7 10 15 17 19 20 24 22 22 21 19 17 17 18 18 18 18 18 17 15
34 29 30 30 28 17 12 7 4 5 4 3 3 8 10 11 7 5 5 3 9 4 2 1 3 2 3 3 4 2 0 3 7 8 6 5 12 17 20 22 22 19 20 19 17 16 17 18 19 19 20 20 18 17
34 31 27 24 23 10 8 8 5 5 6 6 6 5 9 8 7 5 5 6 4 1 2 2 5 1 2 3 3 3 7 8 7 5 4 5 8 12 16 19 18 17 18 17 16 16 18 20 21 20 20 19 18 19
34 30 27 25 13 4 4 5 5 5 7 6 8 7 8 8 9 7 6 4 4 4 2 2 1 1 3 7 9 12 8 5 3 3 1 4 6 9 13 16 14 17 17 17 16 18 19 20 20 19 19 20 20 19
36 31 28 18 10 4 4 4 4 5 3 4 6 6 5 4 3 7 7 4 3 2 1 1 3 4 5 5 7 6 5 4 3 2 0 2 6 9 12 13 13 16 16 16 16 17 17 19 22 19 18 20 19 18
31 26 20 10 6 7 4 3 5 6 6 4 6 5 4 3 2 1 2 2 3 1 1 7 8 3 5 7 4 4 3 1 1 3 2 6 6 8 10 11 13 14 15 16 17 18 20 21 19 21 20 21 21 17
26 24 15 9 5 4 5 6 5 5 3 6 5 3 4 1 1 1 1 1 1 4 4 4 4 6 4 7 10 6 6 7 7 6 4 7 7 8 11 10 14 15 16 17 16 18 19 20 17 18 21 21 21 18
18 12 6 5 4 4 2 2 2 4 3 5 4 3 2 1 1 1 2 2 3 3 2 3 7 8 9 9 7 8 7 5 2 4 7 5 4 6 10 11 14 16 16 16 16 16 19 18 18 19 21 20 19 18
11 3 2 2 3 3 1 0 3 4 3 4 4 2 1 3 2 2 3 4 5 4 1 5 6 6 5 2 4 5 7 8 4 7 8 4 5 7 8 11 13 15 16 14 15 17 16 18 17 20 23 21 19 20
2 3 2 2 2 3 2 3 1 2 2 3 2 2 3 4 3 4 2 5 6 5 3 4 5 4 5 5 4 6 7 5 4 3 6 7 5 7 7 8 10 11 11 13 16 17 17 18 19 21 22 21 21 21
3 1 2 2 2 2 3 3 4 4 2 3 3 3 3 3 3 1 3 6 6 4 4 5 5 4 4 6 6 7 8 10 5 2 2 3 3 6 8 9 10 11 12 14 15 16 17 17 19 19 20 20 20 21
1 2 2 1 1 3 2 1 2 2 3 4 3 5 4 4 2 4 5 2 2 3 3 4 5 4 5 7 7 7 8 6 5 7 7 6 5 6 7 8 8 10 11 12 12 13 17 16 17 18 18 17 17 19
1 1 2 4 2 2 1 1 3 4 3 3 4 6 1 4 3 2 1 2 3 4 4 2 4 3 5 7 7 5 5 6 6 4 2 3 4 3 3 4 6 8 10 10 8 7 13 13 14 15 16 16 16 16
1 0 1 2 2 3 3 1 2 3 3 3 4 3 3 4 3 2 1 2 3 2 1 3 4 2 3 5 8 4 2 1 6 5 3 7 6 8 7 6 5 4 3 3 3 4 7 10 12 12 12 12 12 13
2 2 2 1 2 2 2 3 2 1 3 2 3 6 5 4 2 4 3 3 3 4 4 4 4 3 4 7 9 7 4 3 3 4 8 7 5 4 5 4 4 4 5 3 5 5 4 5 7 11 12 13 13 13
1 2 3 5 3 2 3 2 2 4 4 3 4 6 8 6 4 4 4 5 4 3 3 4 5 4 4 3 2 2 4 5 5 3 1 1 4 5 6 7 7 6 6 5 4 6 9 6 6 6 6 6 8 9
2 3 3 2 3 2 2 2 4 6 6 5 4 3 6 6 4 1 5 4 3 3 4 3 2 2 4 4 4 5 5 5 5 5 6 6 7 7 8 8 8 7 5 5 5 6 6 5 5 7 8 8 7 7
3 3 4 3 4 4 4 4 6 3 2 3 4 4 4 4 4 2 4 5 4 5 4 2 1 3 3 3 2 2 3 5 6 6 7 8 8 8 8 6 5 3 2 1 1 1 2 3 4 4 4 3 5 6
Wind_Direction
216 222 195 201 194 192 186 183 183 187 200 186 181 208 179 168 38 34 22 93 132 110 54 155 171 160 159 151 150 161 143 176 186 200 208 185 201 174 135 171 172 179 198 207 248 249 167 150 142 219 120 118 119 99
212 219 190 192 181 186 187 196 181 174 169 167 184 182 205 231 75 18 84 114 126 86 100 101 101 77 97 115 147 169 116 165 176 211 225 319 114 130 144 138 159 206 78 270 31 81 102 79 96 116 134 130 113 113
203 222 188 190 186 181 180 176 177 176 154 179 182 171 194 220 81 72 89 115 112 113 89 74 46 54 103 107 142 150 148 135 129 284 327 11 136 156 214 105 144 132 55 108 128 137 112 113 111 112 124 123 119 108
200 212 181 181 181 177 174 168 170 171 175 172 168 157 155 181 126 126 133 132 132 104 96 74 68 63 68 103 121 135 156 136 151 58 68 99 108 1 41 134 154 132 149 121 102 113 121 130 132 132 125 119 114 102
196 214 177 177 182 178 177 170 164 161 160 158 169 137 161 168 155 157 134 115 120 126 118 112 87 75 83 93 101 114 126 132 136 73 33 139 49 42 36 125 135 166 131 173 165 160 190 149 145 147 141 131 127 124
198 183 172 175 179 170 176 170 157 153 155 157 164 164 153 138 122 106 95 94 92 119 119 83 83 93 92 92 98 103 109 119 135 123 37 43 14 328 149 139 97 95 100 110 136 145 134 141 145 148 141 131 125 118
197 167 168 169 167 170 173 173 157 149 156 154 156 150 148 153 138 144 150 134 123 108 97 116 113 74 102 102 97 99 101 91 114 135 175 138 154 304 79 137 122 117 116 123 132 127 131 154 143 148 144 136 122 114
166 164 164 166 167 170 165 160 158 162 154 160 168 142 121 110 94 99 134 133 117 97 105 100 106 137 160 136 100 76 111 123 33 62 120 137 124 285 153 124 130 139 133 133 147 130 155 155 147 148 147 142 137 128
165 166 162 164 162 166 159 166 173 154 146 157 153 137 122 94 67 114 119 128 86 65 89 121 150 140 160 118 114 92 61 75 47 344 113 310 129 182 216 142 157 156 158 159 151 140 144 148 151 153 155 157 154 148
168 160 162 157 158 155 149 144 143 140 137 136 128 113 87 108 119 114 93 73 59 52 41 106 115 127 153 145 101 94 40 104 132 186 107 38 309 133 169 156 165 162 166 166 157 162 160 159 164 167 171 170 170 162
152 158 160 155 156 154 150 145 141 139 137 131 100 84 127 121 96 79 65 136 136 102 71 96 125 131 140 125 100 75 142 176 176 156 173 192 221 168 164 157 164 162 164 171 175 171 172 172 173 171 170 168 166 161
149 151 153 156 162 161 159 147 138 130 142 140 129 114 109 88 86 91 84 125 203 106 134 133 129 118 99 102 105 133 108 228 120 109 174 234 119 158 161 158 159 161 165 166 169 169 172 175 174 173 171 169 167 181
151 154 162 161 154 147 147 150 130 122 121 112 82 79 78 56 105 177 141 129 116 122 152 139 114 124 106 75 79 80 185 168 122 167 222 48 139 156 155 159 164 170 175 173 170 170 172 173 176 180 181 188 197 199
146 143 141 140 135 137 126 134 138 103 91 78 56 64 12 77 69 37 32 82 92 141 152 131 114 92 112 84 151 159 92 138 174 215 215 144 155 159 163 168 170 175 178 180 183 185 190 194 195 200 205 208 205 202
141 141 140 140 140 138 133 122 105 103 60 66 41 46 62 60 56 65 41 94 106 139 146 137 119 114 101 114 216 116 134 195 226 220 86 130 156 162 169 171 178 187 190 195 200 200 201 203 204 206 206 207 204 204
142 137 138 139 136 131 113 100 101 71 64 65 61 112 136 116 106 69 86 93 155 148 165 173 150 127 148 149 171 195 196 217 126 72 112 143 162 173 176 179 197 198 198 201 207 208 206 205 208 209 207 207 207 210
142 145 149 142 140 119 84 93 90 66 69 65 60 32 53 69 79 82 84 126 161 174 216 278 140 149 142 180 183 207 74 65 104 92 107 167 183 189 193 197 204 202 199 203 210 209 207 205 208 208 208 212 212 218
140 142 143 146 145 71 54 51 67 65 64 59 86 52 69 90 101 75 79 89 170 163 55 28 308 170 165 167 133 62 96 95 100 106 125 149 185 195 203 206 205 203 204 208 214 214 209 210 212 213 212 219 218 225
141 140 137 137 136 99 55 41 45 80 65 85 93 87 89 82 70 77 88 77 78 72 33 352 358 294 69 40 36 51 45 42 120 138 187 177 191 193 198 207 200 199 207 213 216 217 217 217 218 216 216 224 223 227
149 144 141 134 93 78 74 48 54 93 95 99 107 103 77 83 95 92 77 60 54 35 25 6 32 43 47 29 24 19 20 56 82 100 360 223 213 206 204 213 202 204 210 216 215 214 217 217 215 212 221 227 226 219
159 144 131 114 55 62 80 70 65 96 126 111 130 123 82 110 103 92 70 71 29 309 67 62 80 40 341 340 336 353 331 162 179 269 333 246 244 205 211 208 206 209 212 218 218 221 216 227 227 215 217 222 234 219
141 137 114 75 68 63 65 32 101 113 97 132 146 133 105 135 203 234 259 205 269 73 68 31 345 300 312 307 309 318 302 279 266 270 271 243 244 207 225 218 212 217 220 229 231 227 237 227 226 221 220 227 230 232
135 141 96 33 59 60 52 46 101 140 125 144 145 129 139 196 53 344 261 243 94 83 25 324 326 341 326 324 336 329 321 300 257 278 262 228 232 226 219 232 223 223 223 229 235 233 235 238 223 223 227 229 233 236
107 97 94 65 58 95 94 137 130 128 115 171 163 190 150 131 154 220 261 129 121 110 31 342 358 347 352 317 302 311 301 309 286 265 266 246 244 249 235 236 239 236 236 240 239 237 235 241 235 226 230 234 233 235
120 51 104 83 128 135 148 144 213 139 148 182 142 237 140 161 221 217 209 110 127 95 19 360 7 354 345 335 336 330 324 321 268 281 291 286 231 240 248 243 247 251 250 236 235 239 237 237 243 236 234 234 235 239
71 35 14 104 154 177 156 157 186 200 188 188 228 109 154 208 230 231 72 65 72 63 23 14 2 350 346 353 334 331 308 297 300 264 264 251 238 253 251 249 251 258 256 250 242 242 246 243 242 244 242 239 237 240
116 138 174 207 229 181 168 224 178 182 196 216 174 166 190 229 196 83 111 95 52 319 11 8 359 336 326 329 317 308 323 317 283 243 250 273 265 239 243 246 254 257 264 269 271 248 241 246 245 244 248 250 245 248
347 92 215 172 218 236 226 258 209 221 216 150 164 200 276 20 71 67 74 280 0 44 35 4 302 343 28 345 355 358 358 18 36 48 73 58 19 353 308 278 274 268 266 277 279 249 228 235 240 247 248 250 251 251
223 228 240 184 258 216 234 260 40 58 10 333 331 73 90 80 122 127 316 45 54 74 45 17 352 69 102 70 7 38 17 99 78 68 55 112 85 8 20 12 2 360 343 323 307 263 230 230 232 241 251 256 258 256
164 188 272 171 227 254 94 46 97 109 56 88 109 111 95 102 112 143 119 77 53 48 51 27 2 70 87 108 70 17 26 56 98 103 70 44 16 318 335 346 349 335 326 326 317 320 292 267 252 240 243 247 253 261
143 199 237 234 250 130 173 208 142 133 135 112 104 114 130 143 125 67 92 80 49 20 97 76 20 36 67 67 69 93 33 43 49 59 91 252 319 322 320 317 313 308 305 298 271 271 284 294 263 271 261 245 242 237
202 245 291 254 145 140 160 193 199 203 168 167 137 133 143 150 114 50 359 82 62 25 16 53 59 36 69 71 77 66 43 17 12 9 3 353 346 339 334 331 322 312 307 299 278 263 263 240 210 199 197 215 236 240
246 253 255 275 198 200 171 228 199 164 135 83 82 71 58 62 89 105 325 12 32 353 336 328 111 100 82 42 65 74 47 5 349 356 353 353 351 351 348 350 8 21 26 38 103 149 171 203 213 214 221 213 215 234